[[{"header":{"parameterUnit":"m.s-1","parameterCategory":1,"la1":30.2991,"la2":30.254,"lo1":-89.0895,"lo2":-89.0444,"dy":0.0017,"dx":0.0017,"nx":28,"ny":28,"refTime":"2025-04-24T09:00:00:Z","depth":0,"parameterNumber":2,"parameterNumberName":"U-component_of_WINDS"},"data":[0,0,0,0,0,0,0,0,0,0,0,0,0,0,0,0,0,0,0,0,0,0,0,0,0,0,0,0,0,0,0,0,0,0,0,0,0,0,0,0,0,0,0,0,0,0,0,0,0,0,0,0,0,0,0,0,0,0,-0.7076,-0.7077,0,-0.7169,-0.717,-0.7171,-0.7207,-0.7206,-0.7206,-0.7206,-0.7304,-0.7307,-0.731,0,0,0,0,0,0,0,0,0,0,0,0,0,-0.6931,-0.6934,-0.7076,-0.7077,-0.7078,-0.7169,-0.717,-0.7172,-0.7207,-0.7206,-0.7206,-0.7206,-0.7303,-0.7307,-0.731,0,0,0,0,0,0,0,0,0,0,0,0,0,-0.7006,-0.6935,-0.7076,-0.7107,-0.711,-0.7169,-0.717,-0.7172,-0.7207,-0.7206,-0.7206,-0.7205,-0.7302,-0.7306,-0.7311,-0.7346,0,0,-0.7324,-0.7326,0,0,0,0,0,0,0,0,-0.7002,-0.7012,-0.7101,-0.7105,-0.7109,-0.7176,-0.7155,-0.723,-0.7207,-0.717,-0.7206,-0.7205,-0.7262,-0.727,-0.7288,-0.7351,-0.7355,-0.7324,-0.7327,-0.7329,-0.733,0,0,0,0,0,0,0,-0.6997,-0.7008,-0.7113,-0.7102,-0.7107,-0.7117,-0.7127,-0.717,-0.7218,-0.7173,-0.7176,-0.7187,-0.7264,-0.7284,-0.7291,-0.7356,-0.7324,-0.7328,-0.7331,-0.7332,-0.7452,-0.7453,0,0,0,0,0,0,-0.6986,-0.7003,-0.711,-0.7116,-0.7053,-0.712,-0.7131,-0.7155,-0.7217,-0.7226,-0.7187,-0.7188,-0.7277,-0.7286,-0.7294,-0.734,-0.7329,-0.7333,-0.7335,-0.7452,-0.7453,-0.7453,0,0,0,0,0,0,-0.6983,-0.6995,-0.7106,-0.706,-0.7075,-0.7123,-0.7149,-0.7157,-0.7177,-0.7227,-0.7236,-0.7198,-0.7277,-0.7288,-0.7333,-0.7344,-0.7335,-0.7339,-0.7451,-0.7452,-0.7453,-0.7431,0,0,0,0,0,0,-0.6978,-0.6994,-0.7007,-0.706,-0.7077,-0.7142,-0.715,-0.7159,-0.7184,-0.7186,-0.724,-0.7249,-0.7277,-0.7326,-0.7337,-0.7349,-0.7342,-0.745,-0.7452,-0.7453,-0.7431,-0.7431,-0.7431,0,0,0,0,0,-0.6973,-0.6998,-0.7008,-0.702,-0.7095,-0.7143,-0.7153,-0.7184,-0.7184,-0.7199,-0.7231,-0.7247,-0.7341,-0.733,-0.7343,-0.7357,-0.745,-0.7451,-0.7453,-0.7431,-0.7431,-0.7431,0,0,0,0,0,0,-0.6946,-0.7005,-0.7017,-0.7059,-0.7095,-0.7148,-0.7167,-0.7183,-0.7221,-0.7221,-0.726,-0.7272,-0.7313,-0.734,-0.7327,-0.7394,-0.7396,-0.74,-0.7375,-0.7376,-0.7376,-0.7369,-0.7346,0,0,0,0,0,-0.6944,-0.6977,-0.7028,-0.7061,-0.7078,-0.7119,-0.7141,-0.7162,-0.7202,-0.7218,-0.7254,-0.7292,-0.733,-0.7355,-0.7393,-0.7435,-0.7447,-0.7451,-0.7451,-0.745,-0.7453,-0.7478,-0.748,-0.7458,-0.7458,-0.7458,0,0,-0.6943,-0.6979,-0.6998,-0.7056,-0.7086,-0.712,-0.7132,-0.7168,-0.7193,-0.7224,-0.7267,-0.7295,-0.7341,-0.7384,-0.7405,-0.7407,-0.7462,-0.7452,-0.7451,-0.7455,-0.7479,-0.7481,-0.7483,-0.7459,-0.7458,-0.7458,0,0,-0.6956,-0.6987,-0.7017,-0.7047,-0.7093,-0.712,-0.7127,-0.7178,-0.7197,-0.7242,-0.7265,-0.7297,-0.7362,-0.7393,-0.7417,-0.7443,-0.7459,-0.7454,-0.7454,-0.7477,-0.7479,-0.7481,-0.749,-0.7492,-0.7457,-0.7457,-0.7457,0,-0.6948,-0.6999,-0.7031,-0.7065,-0.709,-0.7118,-0.7149,-0.7177,-0.7233,-0.725,-0.7252,-0.7334,-0.7367,-0.7418,-0.7424,-0.7443,-0.7453,-0.7448,-0.7476,-0.7478,-0.748,-0.7489,-0.7492,-0.7456,-0.7456,-0.7456,-0.7456,0,-0.6987,-0.7022,-0.7041,-0.7093,-0.7121,-0.7153,-0.7191,-0.7215,-0.7233,-0.7261,-0.7306,-0.7346,-0.7392,-0.7406,-0.7425,-0.746,-0.746,-0.7468,-0.7471,-0.7481,-0.749,-0.7494,-0.7455,-0.7455,-0.7455,-0.7455,0,0,-0.6986,-0.7055,-0.7061,-0.7085,-0.7137,-0.7166,-0.72,-0.7244,-0.7264,-0.7302,-0.7332,-0.7386,-0.7394,-0.7421,-0.7444,-0.7465,-0.7482,-0.7471,-0.7473,-0.7471,-0.7523,-0.7516,-0.7519,-0.7493,-0.7494,-0.7494,-0.7519,0,-0.7006,-0.7067,-0.7097,-0.7145,-0.7178,-0.7204,-0.7234,-0.727,-0.7296,-0.7329,-0.7359,-0.7396,-0.7404,-0.7421,-0.7443,-0.7475,-0.7493,-0.7474,-0.7522,-0.7523,-0.7509,-0.7524,-0.7517,-0.7538,-0.7523,-0.7523,-0.7524,0,-0.7038,-0.7074,-0.7125,-0.7173,-0.7188,-0.7214,-0.7257,-0.7288,-0.7329,-0.7347,-0.7378,-0.74,-0.7438,-0.7438,-0.749,-0.7477,-0.7498,-0.7517,-0.7519,-0.7525,-0.7524,-0.753,-0.7545,-0.7548,-0.753,-0.7529,-0.7529,0,-0.7032,-0.7094,-0.7132,-0.7152,-0.7209,-0.7226,-0.7251,-0.7292,-0.7317,-0.7355,-0.7371,-0.7413,-0.7437,-0.7469,-0.7502,-0.7499,-0.7552,-0.7555,-0.7568,-0.7567,-0.7578,-0.7577,-0.7597,-0.7592,-0.7592,-0.7592,-0.7592,0,-0.7051,-0.7082,-0.713,-0.7153,-0.7188,-0.7222,-0.7256,-0.7283,-0.7319,-0.7349,-0.7376,-0.7403,-0.7446,-0.7479,-0.7506,-0.7545,-0.7556,-0.7572,-0.7578,-0.7569,-0.7567,-0.7584,-0.7583,-0.7593,-0.7593,-0.7592,-0.7592,0,-0.705,-0.7084,-0.7127,-0.7177,-0.7191,-0.7214,-0.7257,-0.7282,-0.7309,-0.7347,-0.7358,-0.7402,-0.7442,-0.7479,-0.7533,-0.7551,-0.7591,-0.76,-0.7577,-0.758,-0.7592,-0.759,-0.7623,-0.7629,-0.762,-0.762,-0.762,0,-0.706,-0.7084,-0.7136,-0.7157,-0.7181,-0.7215,-0.724,-0.7275,-0.73,-0.7349,-0.7368,-0.741,-0.7445,-0.7509,-0.7547,-0.7588,-0.7598,-0.7607,-0.7604,-0.7594,-0.7598,-0.7596,-0.7599,-0.7606,-0.7606,-0.7606,-0.7606,0,-0.7075,-0.709,-0.7124,-0.7164,-0.7192,-0.7226,-0.7261,-0.7277,-0.7318,-0.7345,-0.7386,-0.7414,-0.7469,-0.7511,-0.7556,-0.7583,-0.7602,-0.7606,-0.7612,-0.7603,-0.7588,-0.7596,-0.7576,-0.7606,-0.7606,-0.7606,-0.7606,-0.7606,-0.708,-0.7101,-0.7141,-0.7178,-0.7208,-0.7239,-0.7264,-0.7294,-0.7329,-0.7375,-0.7394,-0.7436,-0.7477,-0.754,-0.7567,-0.7601,-0.7605,-0.7612,-0.7614,-0.7616,-0.7614,-0.7583,-0.761,-0.761,-0.761,-0.761,-0.761,0,-0.7095,-0.7122,-0.7155,-0.7202,-0.7231,-0.7245,-0.7284,-0.7308,-0.7344,-0.738,-0.7414,-0.7462,-0.7502,-0.7542,-0.7585,-0.7605,-0.7615,-0.7615,-0.7614,-0.762,-0.7608,-0.7599,-0.7606,-0.7606,-0.7606,-0.7606,-0.7606,-0.7606,-0.7106,-0.7144,-0.7164,-0.7217,-0.7244,-0.7284,-0.7305,-0.7334,-0.7363,-0.7414,-0.7448,-0.7473,-0.7511,-0.7557,-0.7595,-0.7606,-0.7621,-0.7619,-0.7632,-0.7621,-0.7621,-0.7621,-0.7612,-0.7622,-0.7622,-0.7641,-0.7641,-0.7641]},{"header":{"parameterUnit":"m.s-1","parameterCategory":1,"la1":30.2991,"la2":30.254,"lo1":-89.0895,"lo2":-89.0444,"dy":0.0017,"dx":0.0017,"nx":28,"ny":28,"refTime":"2025-04-24T09:00:00:Z","depth":0,"parameterNumber":3,"parameterNumberName":"V-component_of_WINDS"},"data":[0,0,0,0,0,0,0,0,0,0,0,0,0,0,0,0,0,0,0,0,0,0,0,0,0,0,0,0,0,0,0,0,0,0,0,0,0,0,0,0,0,0,0,0,0,0,0,0,0,0,0,0,0,0,0,0,0,0,2.8144,2.8143,0,2.8059,2.8058,2.8057,2.8073,2.8074,2.8076,2.8077,2.7982,2.7978,2.7974,0,0,0,0,0,0,0,0,0,0,0,0,0,2.8314,2.8311,2.8144,2.8143,2.8142,2.806,2.8058,2.8057,2.8073,2.8074,2.8076,2.8078,2.7983,2.7978,2.7974,0,0,0,0,0,0,0,0,0,0,0,0,0,2.8236,2.831,2.8144,2.814,2.8139,2.806,2.8058,2.8057,2.8072,2.8074,2.8077,2.8079,2.7985,2.7979,2.7973,2.789,0,0,2.7955,2.7952,0,0,0,0,0,0,0,0,2.824,2.8229,2.8142,2.814,2.8139,2.8079,2.8083,2.8001,2.8072,2.8097,2.8077,2.808,2.8012,2.8004,2.7982,2.7886,2.7882,2.7954,2.7951,2.7948,2.7946,0,0,0,0,0,0,0,2.8246,2.8233,2.811,2.814,2.8138,2.8141,2.8132,2.8068,2.8042,2.8095,2.8096,2.8086,2.8011,2.7988,2.798,2.788,2.7954,2.7949,2.7945,2.7943,2.7716,2.7714,0,0,0,0,0,0,2.8253,2.8238,2.8113,2.8108,2.8196,2.8136,2.8126,2.8096,2.8043,2.8037,2.8084,2.8087,2.7997,2.7987,2.7977,2.788,2.7948,2.7943,2.7939,2.7719,2.7716,2.7713,0,0,0,0,0,0,2.8257,2.8242,2.8116,2.8173,2.8157,2.813,2.8096,2.8093,2.807,2.8035,2.803,2.8066,2.7999,2.7985,2.7913,2.7876,2.794,2.7934,2.7722,2.7718,2.7714,2.7682,0,0,0,0,0,0,2.8262,2.8243,2.8212,2.8172,2.8154,2.8055,2.8094,2.809,2.8061,2.8064,2.8016,2.8011,2.7999,2.7922,2.7908,2.7869,2.793,2.7725,2.772,2.7716,2.7687,2.7678,2.7671,0,0,0,0,0,2.8268,2.8204,2.8211,2.8195,2.8115,2.8053,2.8042,2.8033,2.8058,2.8026,2.8005,2.8012,2.7883,2.7915,2.7898,2.7858,2.7727,2.7721,2.7716,2.769,2.768,2.7671,0,0,0,0,0,0,2.8235,2.8198,2.8205,2.8127,2.8094,2.8056,2.8015,2.8022,2.7979,2.7983,2.7971,2.796,2.7888,2.7865,2.7901,2.7777,2.7808,2.7799,2.7794,2.7784,2.7777,2.7783,2.7925,0,0,0,0,0,2.822,2.8175,2.8144,2.8077,2.8061,2.8041,2.8014,2.8011,2.7974,2.7959,2.7932,2.7895,2.7846,2.7814,2.7767,2.7684,2.7675,2.7649,2.7641,2.7634,2.7626,2.7584,2.7573,2.7695,2.7695,2.7695,0,0,2.8185,2.816,2.8131,2.807,2.8044,2.7997,2.8029,2.7976,2.7941,2.795,2.7882,2.7861,2.7819,2.7742,2.7707,2.7721,2.7591,2.7627,2.7623,2.7618,2.7577,2.7566,2.7556,2.7691,2.7692,2.7693,0,0,2.8099,2.8075,2.8019,2.7994,2.7956,2.7944,2.7931,2.7894,2.7882,2.7814,2.7822,2.7779,2.7694,2.7665,2.7639,2.7549,2.7555,2.7534,2.7492,2.7451,2.7441,2.7433,2.7402,2.7391,2.7526,2.7526,2.7526,0,2.806,2.7992,2.7988,2.7937,2.7911,2.7922,2.7866,2.784,2.7787,2.7768,2.7787,2.7685,2.7657,2.7576,2.7555,2.7532,2.7517,2.7538,2.7444,2.7435,2.7427,2.7398,2.7386,2.7524,2.7524,2.7524,2.7525,0,2.7947,2.7899,2.7858,2.7813,2.7782,2.7727,2.7716,2.7685,2.7686,2.7672,2.7605,2.7573,2.7522,2.7502,2.75,2.7421,2.7432,2.7447,2.7477,2.7413,2.7386,2.7374,2.7521,2.7522,2.7522,2.7523,0,0,2.7833,2.7792,2.7777,2.7758,2.772,2.7682,2.7629,2.7583,2.7558,2.7522,2.7478,2.741,2.7426,2.7396,2.7392,2.7356,2.729,2.7375,2.7374,2.7362,2.7204,2.7193,2.718,2.7295,2.7292,2.7291,2.7208,0,2.7745,2.7655,2.7653,2.757,2.7528,2.7541,2.7496,2.7467,2.7454,2.7415,2.7399,2.7352,2.7375,2.7358,2.7324,2.7305,2.7258,2.7311,2.7253,2.7251,2.7263,2.7165,2.7152,2.7075,2.7197,2.7195,2.7193,0,2.7628,2.7595,2.7509,2.7482,2.7463,2.7423,2.7383,2.7346,2.7314,2.7307,2.7278,2.7281,2.7227,2.7262,2.7188,2.7225,2.7201,2.7189,2.7186,2.7179,2.7217,2.7156,2.705,2.7039,2.7176,2.7177,2.7179,0,2.7556,2.7489,2.743,2.7414,2.7379,2.7351,2.7335,2.7307,2.7281,2.7245,2.7229,2.7186,2.7163,2.713,2.7121,2.7146,2.7048,2.7081,2.7041,2.7041,2.7018,2.7019,2.6907,2.7003,2.7003,2.7003,2.7004,0,2.7457,2.7404,2.7399,2.7362,2.7304,2.7303,2.7245,2.7231,2.7207,2.7168,2.7175,2.7138,2.7129,2.709,2.7082,2.7024,2.7012,2.7006,2.7004,2.7005,2.7006,2.6988,2.6993,2.7,2.7001,2.7002,2.7002,0,2.7366,2.736,2.7297,2.7273,2.7265,2.7224,2.7202,2.7167,2.7158,2.7109,2.7097,2.7081,2.7036,2.7025,2.6969,2.6965,2.6896,2.6899,2.6908,2.6908,2.6869,2.6873,2.6741,2.6725,2.6831,2.683,2.6829,0,2.7303,2.7264,2.7237,2.7214,2.7198,2.7158,2.7134,2.7132,2.7106,2.7071,2.704,2.6998,2.6963,2.6891,2.6873,2.6832,2.6835,2.6792,2.6828,2.6832,2.6835,2.6838,2.6835,2.6784,2.6783,2.6782,2.6781,0,2.7192,2.7193,2.7159,2.7125,2.7097,2.7069,2.7042,2.7021,2.7016,2.6987,2.6943,2.6917,2.6865,2.6822,2.6782,2.6764,2.6771,2.6771,2.6759,2.6759,2.6766,2.6763,2.6889,2.6773,2.6773,2.6774,2.6775,2.6775,2.7114,2.7081,2.7059,2.7022,2.7003,2.6979,2.6947,2.6936,2.6901,2.6861,2.6861,2.6814,2.6788,2.6735,2.6716,2.6679,2.6692,2.6675,2.667,2.6666,2.6664,2.6773,2.6671,2.6671,2.6672,2.6672,2.6672,0,2.7005,2.6993,2.6959,2.6925,2.6896,2.6911,2.6883,2.6857,2.6817,2.6793,2.6761,2.6713,2.6673,2.6655,2.6616,2.659,2.6593,2.658,2.6581,2.6578,2.6654,2.6668,2.6578,2.6578,2.6578,2.6578,2.6578,2.6579,2.6945,2.6892,2.6891,2.6829,2.6817,2.6774,2.6757,2.6736,2.6717,2.6665,2.6633,2.6623,2.6602,2.6563,2.6527,2.6523,2.6508,2.6494,2.6491,2.6562,2.6572,2.6581,2.6594,2.649,2.649,2.6418,2.6417,2.6417]}]]